N808JB KGRB-KGRB

Flight info

Callsign N808JB
Flight time 0h 12m
Altitude 2000
Route KGRB KGRB
Aircraft SR22/L-V/N

Departure

Time 2026-05-04 18:08
Airport Austin Straubel International Airport (KGRB)

Arrival

Time 2026-05-04 18:20
Airport Austin Straubel International Airport (KGRB)
Time Latitude Longitude Altitude Speed Heading
2026-05-04 17:50 44.49082 -88.12505 681 ft 0 kts 282°
2026-05-04 18:02 44.49082 -88.12506 681 ft 0 kts 228°
2026-05-04 18:03 44.49081 -88.12506 681 ft 0 kts 215°
2026-05-04 18:03 44.49068 -88.12511 680 ft 2 kts 163°
2026-05-04 18:03 44.49059 -88.12501 680 ft 1 kts 143°
2026-05-04 18:03 44.49041 -88.12473 680 ft 3 kts 117°
2026-05-04 18:04 44.49028 -88.12416 680 ft 8 kts 97°
2026-05-04 18:04 44.49033 -88.12312 679 ft 14 kts 88°
2026-05-04 18:04 44.49077 -88.12099 677 ft 7 kts 62°
2026-05-04 18:05 44.49115 -88.12007 676 ft 14 kts 60°
2026-05-04 18:05 44.49176 -88.11861 676 ft 19 kts 62°
2026-05-04 18:05 44.49240 -88.11709 677 ft 18 kts 65°
2026-05-04 18:05 44.49306 -88.11552 676 ft 19 kts 62°
2026-05-04 18:06 44.49379 -88.11335 676 ft 7 kts 123°
2026-05-04 18:06 44.49366 -88.11319 676 ft 1 kts 145°
2026-05-04 18:06 44.49333 -88.11292 676 ft 6 kts 160°
2026-05-04 18:07 44.49287 -88.11297 675 ft 9 kts 229°
2026-05-04 18:07 44.49227 -88.11435 676 ft 40 kts 239°
2026-05-04 18:07 44.48992 -88.12022 756 ft 84 kts 236°
2026-05-04 18:07 44.48682 -88.12753 1002 ft 89 kts 237°
2026-05-04 18:08 44.48384 -88.13547 1213 ft 99 kts 239°
2026-05-04 18:08 44.48039 -88.14363 1578 ft 95 kts 236°
2026-05-04 18:08 44.47545 -88.14914 1809 ft 102 kts 192°
2026-05-04 18:08 44.46807 -88.14569 1881 ft 111 kts 169°
2026-05-04 18:09 44.46091 -88.12666 1820 ft 150 kts 62°
2026-05-04 18:09 44.47806 -88.11132 1835 ft 137 kts 18°
2026-05-04 18:10 44.48682 -88.10680 1851 ft 132 kts
2026-05-04 18:10 44.49562 -88.10434 1837 ft 129 kts 356°
2026-05-04 18:10 44.50441 -88.10371 1678 ft 119 kts 346°
2026-05-04 18:10 44.51192 -88.10403 1557 ft 95 kts 341°
2026-05-04 18:11 44.51819 -88.10427 1453 ft 84 kts 338°
2026-05-04 18:11 44.52389 -88.10445 1470 ft 80 kts 340°
2026-05-04 18:11 44.52981 -88.10466 1500 ft 95 kts 347°
2026-05-04 18:11 44.53632 -88.09920 1535 ft 132 kts 59°
2026-05-04 18:12 44.53697 -88.08669 1625 ft 125 kts 130°
2026-05-04 18:12 44.53068 -88.08040 1680 ft 111 kts 177°
2026-05-04 18:12 44.52299 -88.07732 1819 ft 118 kts 175°
2026-05-04 18:12 44.51451 -88.07371 1765 ft 135 kts 176°
2026-05-04 18:13 44.50770 -88.07692 1711 ft 100 kts 231°
2026-05-04 18:13 44.50456 -88.08503 1346 ft 85 kts 238°
2026-05-04 18:13 44.49920 -88.09764 952 ft 70 kts 239°
2026-05-04 18:14 44.49680 -88.10345 866 ft 64 kts 237°
2026-05-04 18:14 44.49466 -88.10862 768 ft 63 kts 235°
2026-05-04 18:14 44.49231 -88.11418 685 ft 64 kts 236°
2026-05-04 18:15 44.48877 -88.12282 677 ft 64 kts 237°
2026-05-04 18:15 44.48327 -88.13644 1134 ft 90 kts 241°
2026-05-04 18:15 44.48035 -88.14435 1412 ft 96 kts 240°
2026-05-04 18:16 44.47509 -88.14942 1784 ft 105 kts 193°
2026-05-04 18:16 44.46748 -88.14337 1739 ft 144 kts 154°
2026-05-04 18:16 44.46071 -88.13351 1807 ft 147 kts 127°
2026-05-04 18:17 44.46675 -88.10394 1687 ft 171 kts 59°
2026-05-04 18:17 44.47277 -88.09007 1789 ft 155 kts 58°
2026-05-04 18:17 44.48404 -88.06658 1605 ft 135 kts 37°
2026-05-04 18:18 44.49169 -88.06381 1461 ft 103 kts 324°
2026-05-04 18:18 44.49788 -88.06737 1384 ft 86 kts 309°
2026-05-04 18:18 44.50130 -88.07261 1274 ft 71 kts 277°
2026-05-04 18:18 44.50324 -88.07900 1178 ft 71 kts 274°
2026-05-04 18:19 44.50160 -88.09190 1003 ft 72 kts 239°
2026-05-04 18:19 44.49924 -88.09766 949 ft 62 kts 238°
2026-05-04 18:19 44.49720 -88.10253 841 ft 58 kts 238°
2026-05-04 18:20 44.49504 -88.10757 795 ft 59 kts 234°
2026-05-04 18:20 44.49292 -88.11274 707 ft 62 kts 237°
2026-05-04 18:20 44.49097 -88.11743 676 ft 47 kts 239°
2026-05-04 18:20 44.48957 -88.12083 676 ft 39 kts 240°
2026-05-04 18:21 44.48733 -88.12639 808 ft 75 kts 239°
2026-05-04 18:21 44.48432 -88.13360 961 ft 95 kts 239°
2026-05-04 18:21 44.48083 -88.14177 1283 ft 98 kts 226°
2026-05-04 18:21 44.47409 -88.14456 1557 ft 114 kts 186°
2026-05-04 18:22 44.46639 -88.13891 1701 ft 137 kts 153°
2026-05-04 18:22 44.46285 -88.12630 1703 ft 158 kts 80°
2026-05-04 18:22 44.46895 -88.11354 1686 ft 161 kts 45°
2026-05-04 18:22 44.47695 -88.10239 1691 ft 161 kts 40°
2026-05-04 18:23 44.48495 -88.09197 1659 ft 150 kts 37°
2026-05-04 18:23 44.49242 -88.08321 1541 ft 136 kts 31°
2026-05-04 18:23 44.50032 -88.08112 1397 ft 104 kts 323°
2026-05-04 18:23 44.50440 -88.08647 1244 ft 67 kts 246°
2026-05-04 18:24 44.50176 -88.09177 1019 ft 67 kts 237°
2026-05-04 18:24 44.49934 -88.09747 930 ft 67 kts 237°
2026-05-04 18:24 44.49689 -88.10327 854 ft 70 kts 237°
2026-05-04 18:24 44.49458 -88.10886 792 ft 62 kts 237°
2026-05-04 18:25 44.49244 -88.11395 690 ft 57 kts 234°
2026-05-04 18:25 44.49068 -88.11816 676 ft 42 kts 240°
2026-05-04 18:25 44.48934 -88.12140 676 ft 36 kts 240°
2026-05-04 18:25 44.48756 -88.12575 705 ft 73 kts 237°
2026-05-04 18:26 44.48494 -88.13230 1015 ft 77 kts 239°
2026-05-04 18:26 44.48246 -88.13870 1332 ft 81 kts 233°
2026-05-04 18:26 44.47669 -88.14048 1608 ft 101 kts 180°
2026-05-04 18:26 44.47033 -88.13375 1665 ft 130 kts 147°
2026-05-04 18:27 44.46484 -88.12334 1717 ft 149 kts 110°
2026-05-04 18:27 44.46835 -88.10998 1750 ft 154 kts 41°
2026-05-04 18:27 44.47574 -88.09902 1766 ft 148 kts 43°
2026-05-04 18:27 44.48297 -88.08942 1745 ft 138 kts 38°
2026-05-04 18:28 44.48909 -88.08037 1727 ft 127 kts 44°
2026-05-04 18:28 44.49560 -88.07226 1620 ft 117 kts 18°
2026-05-04 18:28 44.50139 -88.07317 1464 ft 76 kts 292°
2026-05-04 18:28 44.50419 -88.07926 1340 ft 67 kts 262°
2026-05-04 18:29 44.50357 -88.08613 1129 ft 72 kts 249°
2026-05-04 18:29 44.50158 -88.09206 1009 ft 66 kts 239°
2026-05-04 18:29 44.49929 -88.09746 931 ft 66 kts 238°
2026-05-04 18:29 44.49692 -88.10312 854 ft 68 kts 238°
2026-05-04 18:30 44.49242 -88.11396 677 ft 55 kts 236°
2026-05-04 18:30 44.49081 -88.11788 676 ft 38 kts 241°
2026-05-04 18:30 44.48985 -88.12047 676 ft 15 kts 274°
2026-05-04 18:31 44.49002 -88.12121 676 ft 3 kts 297°
2026-05-04 18:31 44.49032 -88.12172 676 ft 9 kts 283°
2026-05-04 18:31 44.49026 -88.12227 677 ft 7 kts 240°
2026-05-04 18:31 44.48983 -88.12328 679 ft 13 kts 239°
2026-05-04 18:32 44.48975 -88.12421 679 ft 9 kts 313°
2026-05-04 18:32 44.49044 -88.12437 680 ft 12 kts